Wind_Speed
5 5 6 7 8 9 10 10 11 12 13 14 14 15 15 16 17 17 18 19 20 20 21 21 21 22 22 23 24 25 24 24 24 24 24 24 25 25 26 26 26 26 26 27
4 5 6 7 7 8 9 10 11 12 13 14 15 14 15 17 17 17 18 19 19 20 21 21 21 22 22 23 23 23 22 23 23 23 23 24 25 26 26 26 26 25 26 26
4 5 5 6 7 8 9 10 11 12 13 14 15 15 16 17 17 18 19 19 19 20 20 20 21 21 21 22 21 22 22 22 23 23 23 24 25 25 25 25 25 25 25 26
3 5 5 6 7 8 10 11 12 13 14 15 15 16 16 17 18 19 19 19 19 19 19 20 20 21 20 20 21 22 22 22 22 23 24 24 25 25 25 25 25 25 25 25
3 5 6 7 8 9 10 11 12 13 14 14 14 15 15 16 17 18 19 19 19 18 19 20 21 20 19 19 20 21 21 22 22 23 23 24 25 24 25 25 25 25 25 25
5 6 7 8 9 9 10 11 12 12 12 13 14 15 15 16 17 18 18 18 18 19 19 20 20 19 19 20 20 20 22 22 22 22 23 24 25 25 25 24 25 25 26 25
7 8 8 8 9 10 10 10 10 10 11 13 15 16 17 17 17 18 18 18 18 19 20 20 19 19 20 20 20 20 21 22 22 22 22 23 23 24 23 22 23 25 25 26
7 9 10 10 10 11 11 10 11 12 13 14 15 16 18 17 16 17 18 18 18 18 18 18 18 19 20 20 21 21 21 22 21 21 22 22 22 22 22 22 22 23 23 24
9 11 12 11 12 12 13 12 12 13 14 15 16 17 18 18 17 17 18 18 18 18 18 18 18 19 19 20 21 21 21 21 21 21 21 21 21 22 22 22 22 23 24 24
11 11 12 12 13 13 14 14 14 14 16 17 18 18 18 19 19 19 19 18 18 18 18 19 19 19 20 20 19 19 20 20 20 21 21 21 22 21 22 22 22 23 23 23
11 12 12 13 12 14 15 15 16 16 18 18 19 19 20 20 21 21 20 20 19 19 19 19 20 20 20 19 18 19 19 19 19 19 20 20 21 21 21 22 22 22 22 22
13 13 14 14 15 15 16 16 16 18 19 19 20 20 21 21 21 22 22 21 20 20 20 20 19 19 18 18 18 18 18 18 18 18 18 19 19 19 20 20 21 21 21 21
14 15 16 16 17 17 17 17 18 19 20 20 20 20 22 22 22 22 22 22 21 20 20 19 19 19 18 18 18 18 17 17 17 17 17 18 18 18 19 19 20 20 19 20
15 16 16 17 18 19 19 18 19 20 21 22 22 22 23 23 22 22 22 22 22 20 19 19 19 19 19 18 18 17 17 17 17 16 17 17 18 18 18 18 19 19 19 19
17 17 18 18 19 20 20 20 20 21 22 22 22 23 24 24 23 23 23 22 21 19 19 18 18 18 18 18 17 16 15 15 16 16 16 17 17 17 17 18 18 18 18 18
19 19 19 19 20 21 21 21 21 21 21 22 23 23 24 24 23 23 23 22 20 20 20 19 19 18 17 17 16 15 15 15 16 15 16 16 16 16 17 17 17 17 17 17
19 20 20 20 20 21 22 21 21 22 22 22 23 23 23 23 22 22 22 21 20 20 20 20 19 18 17 16 16 15 15 15 15 14 15 15 16 16 16 16 16 17 17 16
20 21 21 21 21 22 22 23 23 23 23 23 23 23 22 22 22 21 21 19 20 20 20 19 19 18 17 16 15 15 14 14 13 13 14 15 15 15 15 15 15 15 16 16
21 22 23 23 23 24 24 24 25 25 24 24 23 22 21 20 20 20 20 20 20 20 19 19 19 18 17 15 14 14 13 13 12 12 13 14 14 14 14 14 14 14 15 16
23 23 24 24 24 25 25 25 25 25 25 24 23 22 21 20 20 20 20 20 19 19 18 18 18 16 14 13 13 13 11 11 11 12 12 13 13 13 13 13 14 14 16 17
25 25 25 24 25 25 25 25 25 24 24 24 23 22 22 21 21 20 19 19 18 17 16 16 15 13 13 11 11 11 10 10 10 11 11 12 12 12 12 13 13 14 16 16
25 26 26 26 25 26 26 26 26 25 25 24 22 22 21 20 20 18 18 17 16 15 13 13 13 12 12 11 10 9 8 8 9 10 10 11 12 12 12 13 13 14 15 15
26 26 26 26 25 26 26 26 26 25 24 23 22 21 20 19 17 16 15 14 13 12 11 11 11 11 11 10 8 7 7 8 8 9 10 11 11 11 11 12 13 13 14 15
27 27 27 27 25 25 25 25 24 23 22 21 20 19 18 17 16 15 14 13 12 11 10 10 10 10 8 7 6 5 5 6 6 7 9 10 10 11 11 12 12 13 14 15
27 28 28 27 25 24 23 23 22 21 20 19 17 17 16 15 14 13 12 12 10 9 9 8 8 7 6 5 4 4 4 5 6 6 8 9 10 11 11 11 12 13 14 15
27 27 26 25 25 24 23 21 20 19 18 16 15 15 14 13 12 11 10 9 9 8 7 7 6 5 4 4 3 3 3 4 5 6 7 8 9 11 11 11 12 13 15 16
Wind_Direction
198 204 213 219 223 236 238 247 255 256 259 262 267 273 278 279 282 284 286 287 286 283 282 280 279 277 274 273 275 278 278 281 281 283 284 286 290 291 292 295 296 297 297 297
208 224 224 228 234 240 248 254 260 265 269 274 277 277 279 281 282 286 288 289 289 286 284 284 280 275 273 273 275 276 278 280 280 282 283 285 289 291 292 295 297 297 298 299
221 236 235 241 250 253 261 266 269 274 279 282 285 288 285 285 284 288 290 290 290 289 287 285 280 276 277 276 276 278 280 280 279 282 285 287 289 291 293 294 295 297 299 301
245 250 253 257 260 267 274 275 279 281 286 286 288 292 290 287 286 288 291 293 292 291 289 286 283 280 279 278 278 279 278 278 280 282 285 288 290 291 292 293 295 297 300 301
274 263 261 263 265 272 275 278 281 286 289 291 293 295 290 288 290 292 293 294 293 292 292 290 287 285 283 279 279 281 280 280 280 283 285 288 290 290 290 292 294 297 299 300
289 282 278 278 279 279 284 285 288 289 290 290 291 292 291 290 290 293 294 293 292 290 290 290 287 286 287 287 284 283 282 280 281 283 286 288 290 291 291 292 294 296 298 300
295 291 290 290 288 285 288 292 298 297 293 292 293 293 293 291 291 292 293 293 292 289 287 289 290 289 291 290 288 287 285 285 286 288 288 289 291 292 292 293 294 296 297 300
300 294 292 292 291 290 290 290 291 294 293 293 295 297 297 295 294 293 294 295 293 291 288 291 292 293 292 292 289 288 286 287 288 290 290 290 292 294 294 296 297 300 301 302
288 289 291 290 291 291 293 293 291 294 297 296 297 300 299 299 299 301 299 299 297 294 294 293 293 295 294 294 291 287 286 287 288 289 291 293 294 296 297 298 300 303 303 304
294 292 293 293 294 295 293 292 292 297 298 300 301 304 300 298 302 303 300 299 298 294 294 294 292 293 295 293 289 288 288 288 289 290 292 293 296 299 299 299 301 304 305 305
295 295 297 295 293 295 295 294 293 293 293 297 299 299 297 296 298 300 300 297 296 295 293 293 292 293 295 290 288 290 288 288 292 293 295 296 298 301 301 301 302 303 304 306
300 298 298 297 296 293 291 292 292 292 294 295 297 298 297 297 297 299 299 297 296 295 291 292 292 292 294 292 289 291 291 292 296 299 298 299 302 305 307 306 305 306 307 309
301 300 304 304 300 298 295 294 292 291 292 294 297 299 298 298 297 298 296 294 294 293 291 291 291 290 290 289 289 289 289 293 296 298 299 302 304 308 309 309 310 311 313 315
302 302 300 297 295 296 296 294 294 293 293 293 295 295 297 296 297 296 295 295 294 292 290 292 292 293 290 286 284 286 289 294 298 300 299 301 305 307 309 311 312 314 315 317
302 302 300 296 295 294 295 294 295 294 293 293 297 297 297 298 297 295 295 293 293 292 292 291 292 294 293 288 284 287 290 293 295 296 299 302 304 306 308 312 315 316 316 319
302 302 301 298 297 296 296 296 297 296 294 295 297 298 299 299 298 296 294 292 291 290 290 288 288 288 290 290 286 288 290 293 297 298 298 302 304 307 311 314 316 319 321 324
302 304 304 301 300 300 301 301 299 298 297 297 298 297 297 298 298 296 295 292 288 288 286 285 286 289 291 289 287 286 289 292 299 298 301 305 308 310 313 316 317 320 323 325
304 306 307 306 305 304 305 302 298 298 299 298 298 296 295 296 297 296 295 293 289 287 287 287 286 286 289 289 288 288 288 295 299 301 305 308 310 314 316 317 319 321 324 327
303 304 306 305 305 304 304 304 301 299 299 299 297 296 295 297 297 297 295 294 291 286 287 288 290 286 284 286 288 291 291 296 299 306 309 312 315 318 318 320 323 326 328 330
301 302 304 304 303 304 303 303 302 300 299 299 298 296 296 297 297 296 294 293 292 288 286 288 290 287 280 283 288 290 294 301 303 309 313 316 320 321 322 323 324 328 331 332
300 301 302 303 303 303 303 304 302 300 300 299 296 295 295 297 298 296 295 294 291 289 286 285 286 282 277 281 284 286 294 298 306 312 316 320 323 324 325 325 326 328 331 333
299 299 301 303 303 302 302 302 301 298 297 296 293 292 293 294 294 295 295 293 290 290 287 283 279 276 275 276 278 281 292 303 310 313 318 325 326 326 326 328 330 330 332 333
295 296 298 299 300 299 300 300 300 298 296 296 294 291 290 292 296 296 295 291 290 293 287 279 273 271 271 270 274 276 290 307 312 313 320 327 331 331 331 333 334 333 334 335
293 295 296 298 299 298 297 298 298 296 295 293 292 291 292 293 297 296 291 286 285 287 282 277 271 271 270 269 266 273 294 308 316 319 326 333 336 337 336 337 338 338 339 339
294 295 295 296 296 294 294 295 295 294 293 293 293 293 294 295 295 295 287 280 276 278 277 273 269 267 268 268 273 281 294 310 324 331 337 341 343 342 339 340 343 345 346 346
293 294 295 294 295 296 296 294 294 292 292 292 293 293 292 290 292 291 283 277 273 268 259 259 258 258 265 267 271 273 291 309 322 330 339 345 349 348 347 346 348 350 351 351
Height
5853 5855 5856 5856 5857 5858 5859 5860 5861 5861 5861 5862 5862 5862 5861 5860 5859 5858 5857 5855 5854 5852 5850 5848 5847 5846 5845 5844 5843 5842 5840 5839 5837 5836 5834 5832 5830 5828 5826 5824 5822 5819 5816 5813
5854 5854 5855 5855 5856 5857 5858 5859 5859 5859 5859 5859 5858 5858 5857 5856 5855 5854 5852 5851 5849 5848 5846 5844 5842 5841 5840 5839 5838 5837 5835 5834 5832 5831 5829 5827 5825 5823 5821 5819 5816 5813 5810 5807
5853 5854 5854 5854 5855 5856 5856 5857 5856 5856 5856 5855 5855 5855 5853 5852 5851 5849 5848 5846 5844 5843 5841 5839 5837 5836 5835 5834 5833 5831 5830 5829 5828 5825 5824 5822 5820 5818 5816 5813 5811 5808 5805 5801
5852 5852 5852 5853 5853 5854 5854 5854 5854 5853 5853 5853 5853 5852 5850 5848 5847 5845 5844 5841 5840 5838 5836 5834 5833 5831 5830 5829 5828 5826 5825 5824 5822 5820 5819 5818 5815 5813 5811 5808 5806 5803 5799 5796
5851 5851 5851 5851 5852 5852 5852 5851 5851 5851 5850 5850 5849 5848 5848 5844 5843 5841 5839 5837 5835 5834 5832 5830 5828 5827 5825 5824 5822 5821 5820 5819 5817 5816 5814 5812 5810 5808 5805 5803 5800 5797 5794 5791
5850 5850 5850 5849 5849 5849 5849 5849 5848 5847 5848 5848 5846 5845 5844 5841 5839 5837 5835 5833 5831 5829 5828 5826 5824 5822 5821 5819 5818 5816 5815 5814 5812 5810 5809 5807 5805 5803 5800 5797 5794 5792 5789 5785
5849 5848 5848 5847 5847 5847 5847 5847 5847 5847 5846 5845 5843 5841 5840 5837 5835 5833 5831 5829 5827 5825 5823 5822 5820 5818 5816 5815 5813 5811 5810 5808 5807 5805 5803 5802 5800 5797 5795 5792 5789 5786 5783 5780
5848 5847 5846 5845 5845 5844 5843 5844 5844 5844 5843 5841 5839 5837 5836 5833 5830 5828 5826 5824 5822 5820 5818 5817 5815 5813 5811 5809 5808 5806 5804 5803 5801 5800 5798 5796 5794 5792 5789 5787 5784 5781 5777 5774
5845 5845 5843 5842 5841 5841 5840 5840 5840 5839 5837 5837 5835 5834 5831 5828 5826 5824 5822 5820 5818 5816 5814 5812 5810 5808 5806 5804 5802 5800 5799 5798 5796 5794 5792 5790 5788 5786 5784 5781 5778 5775 5772 5769
5841 5841 5840 5839 5838 5838 5837 5836 5835 5834 5833 5832 5831 5829 5827 5823 5821 5819 5817 5815 5814 5812 5810 5808 5806 5803 5801 5799 5797 5795 5794 5793 5791 5789 5787 5785 5783 5780 5778 5775 5772 5769 5766 5763
5838 5838 5837 5836 5834 5834 5833 5832 5831 5830 5829 5827 5826 5827 5821 5819 5817 5815 5812 5810 5809 5807 5804 5802 5801 5799 5796 5794 5792 5791 5789 5788 5786 5784 5782 5780 5777 5775 5772 5769 5766 5763 5760 5757
5835 5835 5833 5832 5831 5830 5829 5827 5827 5826 5824 5822 5820 5822 5815 5813 5811 5809 5807 5805 5803 5801 5799 5797 5795 5793 5792 5790 5788 5786 5785 5783 5781 5779 5777 5775 5772 5769 5767 5764 5761 5758 5755 5752
5832 5831 5830 5829 5829 5826 5824 5823 5821 5820 5818 5816 5815 5816 5810 5807 5805 5803 5801 5799 5797 5795 5794 5792 5790 5789 5787 5785 5783 5782 5780 5778 5776 5774 5772 5770 5767 5765 5762 5759 5756 5753 5750 5747
5828 5827 5827 5826 5823 5821 5819 5818 5816 5815 5813 5811 5810 5808 5805 5802 5800 5798 5795 5793 5791 5790 5788 5787 5785 5783 5782 5780 5778 5777 5775 5773 5771 5769 5767 5765 5763 5761 5758 5755 5752 5749 5746 5743
5824 5823 5821 5819 5817 5815 5814 5813 5811 5809 5807 5805 5803 5801 5798 5796 5794 5792 5789 5787 5785 5784 5782 5781 5779 5778 5776 5775 5773 5772 5770 5769 5767 5765 5763 5761 5759 5756 5754 5751 5748 5745 5742 5739
5820 5818 5817 5815 5813 5810 5809 5807 5805 5804 5801 5799 5797 5795 5792 5789 5787 5785 5783 5781 5779 5778 5776 5775 5774 5772 5771 5770 5769 5768 5766 5765 5763 5760 5759 5757 5755 5752 5750 5747 5744 5741 5738 5735
5815 5813 5812 5810 5808 5805 5803 5802 5800 5798 5795 5794 5791 5789 5786 5784 5781 5779 5777 5775 5773 5772 5770 5769 5768 5767 5766 5765 5764 5763 5762 5761 5758 5756 5755 5753 5751 5748 5746 5743 5740 5738 5735 5731
5811 5808 5806 5804 5803 5800 5800 5796 5794 5791 5789 5787 5785 5782 5780 5778 5776 5773 5771 5769 5768 5766 5765 5764 5763 5762 5761 5760 5760 5759 5758 5756 5755 5753 5751 5749 5747 5745 5742 5740 5737 5734 5731 5728
5805 5803 5801 5799 5797 5795 5793 5790 5787 5785 5783 5780 5777 5775 5773 5771 5769 5767 5765 5764 5762 5761 5760 5759 5758 5757 5756 5756 5755 5755 5754 5752 5751 5750 5748 5746 5744 5742 5739 5736 5734 5731 5728 5725
5800 5798 5796 5793 5790 5789 5787 5784 5780 5778 5775 5773 5770 5768 5767 5765 5764 5763 5760 5758 5756 5755 5755 5754 5753 5752 5751 5751 5751 5751 5750 5748 5748 5747 5745 5743 5741 5739 5736 5734 5731 5729 5726 5723
5795 5793 5791 5788 5784 5782 5779 5777 5774 5773 5771 5766 5764 5762 5761 5759 5758 5756 5754 5752 5751 5750 5749 5748 5748 5748 5748 5748 5747 5747 5746 5746 5745 5744 5743 5741 5738 5736 5733 5731 5729 5726 5723 5720
5788 5786 5784 5781 5779 5777 5772 5770 5768 5766 5762 5760 5758 5756 5755 5753 5752 5750 5749 5747 5746 5745 5744 5744 5743 5744 5744 5744 5744 5744 5743 5743 5742 5742 5740 5738 5736 5733 5731 5729 5726 5724 5721 5718
5782 5780 5777 5776 5774 5769 5766 5762 5760 5757 5755 5753 5752 5751 5749 5748 5746 5745 5744 5743 5742 5741 5740 5740 5740 5740 5741 5741 5741 5741 5741 5741 5740 5739 5738 5736 5734 5731 5729 5726 5724 5721 5718 5715
5775 5772 5770 5768 5766 5762 5759 5756 5753 5751 5749 5748 5747 5745 5743 5742 5741 5740 5739 5739 5739 5738 5738 5738 5738 5738 5738 5738 5738 5739 5739 5739 5738 5738 5736 5734 5732 5729 5727 5725 5722 5719 5717 5714
5767 5765 5762 5760 5759 5756 5753 5750 5748 5746 5744 5742 5741 5740 5739 5738 5737 5736 5735 5735 5735 5735 5735 5735 5735 5735 5736 5736 5736 5737 5737 5737 5737 5736 5734 5732 5730 5728 5726 5723 5721 5718 5716 5712
5761 5758 5755 5754 5751 5749 5747 5744 5742 5741 5739 5738 5737 5736 5735 5734 5733 5732 5732 5731 5731 5731 5732 5732 5733 5733 5734 5734 5735 5736 5736 5736 5735 5734 5733 5731 5729 5727 5725 5722 5720 5718 5715 5712